This is the latest recevied weather packets stored in our database for station/object KO6LQK. If no packets are shown the sender has not sent any weather packets the latest 10 day(s).
| Time | Temp. | Humidity | Pressure | Rain* | Wind** | Luminosity | Snow |
|---|---|---|---|---|---|---|---|
| 1788228607 | 25.56° C | 18% | 1020.2 hPa | 0 mm | - | 11 W/m² | - |
| 1788228302 | 25.56° C | 18% | 1020.2 hPa | 0 mm | - | 16 W/m² | - |
| 1788228002 | 26.11° C | 18% | 1019.9 hPa | 0 mm | - | 19 W/m² | - |
| 1788227698 | 26.11° C | 18% | 1019.9 hPa | 0 mm | - | 23 W/m² | - |
| 1788227397 | 26.67° C | 18% | 1019.9 hPa | 0 mm | - | 29 W/m² | - |
| 1788227093 | 27.22° C | 18% | 1019.7 hPa | 0 mm | - | 40 W/m² | - |
| 1788226788 | 27.78° C | 18% | 1019.9 hPa | 0 mm | - | 52 W/m² | - |
| 1788226484 | 27.78° C | 18% | 1019.8 hPa | 0 mm | - | 61 W/m² | - |
| 1788226180 | 27.78° C | 18% | 1019.7 hPa | 0 mm | - | 68 W/m² | - |
| 1788225879 | 28.33° C | 18% | 1020.1 hPa | 0 mm | - | 81 W/m² | - |
| 1788225575 | 28.33° C | 17% | 1020.2 hPa | 0 mm | - | 92 W/m² | - |
| 1788225271 | 28.33° C | 18% | 1019.8 hPa | 0 mm | - | 118 W/m² | - |
| 1788224969 | 28.33° C | 17% | 1019.9 hPa | 0 mm | - | 140 W/m² | - |
| 1788224664 | 28.33° C | 17% | 1019.9 hPa | 0 mm | - | 172 W/m² | - |
| 1788224363 | 28.33° C | 17% | 1019.8 hPa | 0 mm | - | 193 W/m² | - |
| 1788224058 | 28.33° C | 16% | 1019.7 hPa | 0 mm | - | 218 W/m² | - |
| 1788223753 | 28.89° C | 17% | 1019.8 hPa | 0 mm | - | 236 W/m² | - |
| 1788223452 | 28.89° C | 17% | 1019.8 hPa | 0 mm | - | 247 W/m² | - |
| 1788223147 | 29.44° C | 17% | 1019.8 hPa | 0 mm | - | 276 W/m² | - |
| 1788222843 | 28.89° C | 18% | 1019.8 hPa | 0 mm | - | 297 W/m² | - |
| 1788222541 | 29.44° C | 19% | 1019.7 hPa | 0 mm | - | 324 W/m² | - |
| 1788222241 | 29.44° C | 19% | 1019.8 hPa | 0 mm | - | 344 W/m² | - |
| 1788221935 | 29.44° C | 18% | 1019.8 hPa | 0 mm | - | 364 W/m² | - |
| 1788221631 | 29.44° C | 19% | 1019.9 hPa | 0 mm | - | 382 W/m² | - |
| 1788221326 | 29.44° C | 20% | 1019.8 hPa | 0 mm | - | 408 W/m² | - |
* Rain latest hour (hover to see other rain measurements)
** Current wind speed in m/s (hover to see current wind gust speed)